Weather History for Blair, NE

Change the Weather History Date:

Thursday, November 7, 2013

  Actual Average (KOMA) Record (KOMA)
Temperature  
Mean Temperature 38 °F 44 °F  
Max Temperature 47 °F 54 °F 77 °F (2001)
Min Temperature 28 °F 33 °F -1 °F (1991)
Degree Days  
Heating Degree Days 28 22  
Month to date heating degree days 140  
Since 1 July heating degree days 625  
Cooling Degree Days 0 0  
Month to date cooling degree days 0  
Year to date cooling degree days 1112  
Moisture  
Dew Point 25 °F    
Average Humidity 67    
Maximum Humidity 92    
Minimum Humidity 30    
Precipitation  
Precipitation 0.00 in 0.06 in 0.84 in (1918)
Month to date precipitation 0.43  
Year to date precipitation 28.37  
Snow  
Snow 0.00 in 0.00 in - ()
Month to date snowfall 0.2  
Since 1 July snowfall 0.5  
Snow Depth -    
Sea Level Pressure  
Sea Level Pressure 30.31 in    
Wind  
Wind Speed 7 mph (West)    
Max Wind Speed 16 mph    
Max Gust Speed 24 mph    
Visibility 10 miles    
Events      
T = Trace of Precipitation, MM = Missing Value Source: NWS Daily Summary

Daily Weather History Graph

Daily Weather History Graph

Search for Another Location

Airport:

Trip Planner

Search our weather history database for the weather conditions in past years. The results will help you decide how hot, cold, wet, or windy it might be!

Date:

Astronomy

Nov. 07, 2013 Rise Set
Actual Time 7:03 AM CST 5:12 PM CST
Civil Twilight 6:34 AM CST 5:41 PM CST
Nautical Twilight 6:01 AM CST 6:14 PM CST
Astronomical Twilight 5:28 AM CST 6:46 PM CST
Moon 11:13 AM CST (11/7) 9:24 PM CST (11/7)
Length of Visible Light 11h 06m
Length of Day
10h 08m
Waxing Crescent, 23% of the Moon is Illuminated
Nov 7
Waxing Crescent
Nov 9
First Quarter
Nov 17
Full
Nov 25
Last Quarter
Dec 2
New

Hourly Weather History & Observations

Time (CST) Temp. Windchill Dew Point Humidity Pressure Visibility Wind Dir Wind Speed Gust Speed Precip Events Conditions
12:15 AM 32.0 °F 25.6 °F 29.3 °F 90% 30.24 in 10.0 mi SW 6.9 mph - N/A   Clear
12:35 AM 32.4 °F 26.0 °F 29.8 °F 90% 30.25 in 10.0 mi SW 6.9 mph - N/A   Clear
12:55 AM 32.0 °F 26.4 °F 29.8 °F 92% 30.25 in 10.0 mi SW 5.8 mph - N/A   Clear
1:15 AM 32.0 °F 26.4 °F 29.3 °F 90% 30.25 in 10.0 mi WSW 5.8 mph - N/A   Clear
1:55 AM 32.0 °F 26.4 °F 29.5 °F 90% 30.26 in 10.0 mi West 5.8 mph - N/A   Clear
2:15 AM 32.0 °F 26.4 °F 29.3 °F 90% 30.26 in 10.0 mi West 5.8 mph - N/A   Scattered Clouds
2:35 AM 32.0 °F 27.5 °F 29.3 °F 90% 30.26 in 10.0 mi West 4.6 mph - N/A   Scattered Clouds
2:55 AM 32.0 °F 26.4 °F 29.3 °F 90% 30.26 in 10.0 mi West 5.8 mph - N/A   Scattered Clouds
3:15 AM 31.8 °F 26.2 °F 29.1 °F 90% 30.26 in 10.0 mi West 5.8 mph - N/A   Clear
3:35 AM 31.1 °F 25.4 °F 28.4 °F 90% 30.25 in 10.0 mi WNW 5.8 mph - N/A   Clear
3:55 AM 31.5 °F 26.8 °F 28.8 °F 90% 30.26 in 10.0 mi West 4.6 mph - N/A   Clear
4:15 AM 30.6 °F 24.7 °F 27.5 °F 88% 30.26 in 10.0 mi WSW 5.8 mph - N/A   Clear
4:35 AM 30.2 °F 23.4 °F 27.3 °F 89% 30.26 in 10.0 mi WSW 6.9 mph - N/A   Clear
4:55 AM 30.7 °F 27.3 °F 28.0 °F 90% 30.27 in 10.0 mi WSW 3.5 mph - N/A   Clear
5:15 AM 30.9 °F 27.5 °F 28.2 °F 90% 30.28 in 10.0 mi West 3.5 mph - N/A   Clear
5:35 AM 30.7 °F 24.1 °F 27.7 °F 88% 30.28 in 10.0 mi WSW 6.9 mph - N/A   Clear
5:55 AM 28.9 °F 22.8 °F 26.6 °F 91% 30.29 in 10.0 mi SW 5.8 mph - N/A   Clear
6:15 AM 30.6 °F 23.8 °F 27.9 °F 90% 30.30 in 10.0 mi WSW 6.9 mph - N/A   Clear
6:35 AM 30.9 °F 24.3 °F 27.5 °F 87% 30.30 in 10.0 mi WSW 6.9 mph - N/A   Clear
6:55 AM 30.9 °F 26.2 °F 27.5 °F 87% 30.32 in 10.0 mi West 4.6 mph - N/A   Clear
7:15 AM 29.7 °F 23.7 °F 26.4 °F 88% 30.32 in 10.0 mi WSW 5.8 mph - N/A   Clear
7:35 AM 30.2 °F 25.4 °F 27.3 °F 89% 30.33 in 10.0 mi WSW 4.6 mph - N/A   Clear
7:55 AM 30.7 °F 24.9 °F 27.5 °F 88% 30.33 in 10.0 mi WSW 5.8 mph - N/A   Clear
8:15 AM 32.0 °F 25.6 °F 28.2 °F 86% 30.35 in 10.0 mi West 6.9 mph - N/A   Clear
8:35 AM 32.9 °F 27.5 °F 29.1 °F 86% 30.36 in 10.0 mi WNW 5.8 mph - N/A   Clear
8:55 AM 34.5 °F 27.3 °F 29.7 °F 82% 30.36 in 10.0 mi NW 9.2 mph - N/A   Clear
9:15 AM 35.8 °F 29.4 °F 30.2 °F 80% 30.36 in 10.0 mi WNW 8.1 mph - N/A   Clear
9:35 AM 37.2 °F 30.0 °F 30.0 °F 75% 30.36 in 10.0 mi WNW 10.4 mph 18.4 mph N/A   Clear
9:55 AM 38.3 °F 31.9 °F 30.2 °F 73% 30.37 in 10.0 mi NW 9.2 mph - N/A   Clear
10:15 AM 39.6 °F 31.7 °F 29.3 °F 67% 30.37 in 10.0 mi WNW 13.8 mph - N/A   Clear
10:35 AM 40.1 °F 31.6 °F 28.9 °F 64% 30.37 in 10.0 mi WNW 16.1 mph 20.7 mph N/A   Clear
10:55 AM 41.0 °F 33.1 °F 27.7 °F 59% 30.38 in 10.0 mi WNW 15.0 mph 23.0 mph N/A   Clear
11:15 AM 41.9 °F 34.0 °F 26.6 °F 55% 30.38 in 10.0 mi WNW 16.1 mph 24.2 mph N/A   Clear
11:35 AM 42.8 °F 35.8 °F 26.6 °F 53% 30.37 in 10.0 mi NW 13.8 mph 21.9 mph N/A   Clear
11:55 AM 43.3 °F 36.1 °F 26.4 °F 51% 30.37 in 10.0 mi NW 15.0 mph 21.9 mph N/A   Clear
12:15 PM 44.2 °F 38.4 °F 25.7 °F 48% 30.37 in 10.0 mi NNW 11.5 mph 20.7 mph N/A   Clear
12:35 PM 44.6 °F 39.2 °F 26.6 °F 49% 30.36 in 10.0 mi WNW 10.4 mph 16.1 mph N/A   Clear
12:55 PM 45.5 °F 40.3 °F 24.6 °F 44% 30.35 in 10.0 mi WNW 10.4 mph - N/A   Clear
1:15 PM 45.7 °F 41.0 °F 24.1 °F 43% 30.35 in 10.0 mi NW 9.2 mph 18.4 mph N/A   Clear
1:35 PM 46.4 °F 41.9 °F 22.3 °F 39% 30.35 in 10.0 mi WNW 9.2 mph - N/A   Clear
1:55 PM 46.8 °F - 21.4 °F 37% 30.35 in 10.0 mi WNW 10.4 mph - N/A   Clear
2:15 PM 46.8 °F - 20.3 °F 35% 30.35 in 10.0 mi NW 10.4 mph - N/A   Clear
2:35 PM 46.8 °F - 19.4 °F 34% 30.35 in 10.0 mi NW 9.2 mph - N/A   Clear
2:55 PM 47.1 °F - 16.9 °F 30% 30.34 in 10.0 mi NW 9.2 mph - N/A   Clear
3:15 PM 47.3 °F - 19.6 °F 33% 30.34 in 10.0 mi NW 8.1 mph - N/A   Clear
3:35 PM 47.3 °F - 19.6 °F 33% 30.34 in 10.0 mi West 6.9 mph - N/A   Clear
3:55 PM 46.9 °F - 18.5 °F 32% 30.34 in 10.0 mi WNW 5.8 mph - N/A   Clear
4:55 PM 44.4 °F - 19.0 °F 36% 30.33 in 10.0 mi Calm Calm - N/A   Clear
5:15 PM 42.4 °F - 19.6 °F 40% 30.33 in 10.0 mi Calm Calm - N/A   Clear
5:35 PM 41.0 °F - 20.1 °F 43% 30.33 in 10.0 mi Calm Calm - N/A   Clear
5:55 PM 39.7 °F - 20.3 °F 46% 30.33 in 10.0 mi Calm Calm - N/A   Clear
6:15 PM 41.0 °F - 19.8 °F 43% 30.33 in 10.0 mi Calm Calm - N/A   Clear
6:35 PM 36.9 °F - 21.6 °F 54% 30.32 in 10.0 mi Calm Calm - N/A   Clear
6:55 PM 38.1 °F - 21.0 °F 50% 30.32 in 10.0 mi Calm Calm - N/A   Clear
7:15 PM 37.8 °F 35.3 °F 20.3 °F 49% 30.31 in 10.0 mi SSE 3.5 mph - N/A   Clear
7:35 PM 36.0 °F - 21.2 °F 55% 30.30 in 10.0 mi Calm Calm - N/A   Clear
7:55 PM 35.2 °F 31.2 °F 21.2 °F 57% 30.30 in 10.0 mi South 4.6 mph - N/A   Clear
8:15 PM 34.5 °F 31.6 °F 21.7 °F 60% 30.30 in 10.0 mi South 3.5 mph - N/A   Clear
8:35 PM 34.0 °F 29.8 °F 22.1 °F 62% 30.30 in 10.0 mi SSE 4.6 mph - N/A   Clear
8:55 PM 33.8 °F 30.8 °F 22.1 °F 62% 30.30 in 10.0 mi South 3.5 mph - N/A   Clear
9:15 PM 34.3 °F 30.2 °F 22.6 °F 62% 30.30 in 10.0 mi South 4.6 mph - N/A   Clear
9:35 PM 32.7 °F 28.3 °F 22.6 °F 66% 30.30 in 10.0 mi South 4.6 mph - N/A   Clear
9:55 PM 32.7 °F 28.3 °F 22.8 °F 67% 30.29 in 10.0 mi South 4.6 mph - N/A   Clear
10:15 PM 33.6 °F 29.4 °F 23.0 °F 65% 30.29 in 10.0 mi SSE 4.6 mph - N/A   Clear
10:35 PM 32.0 °F 27.5 °F 23.4 °F 70% 30.28 in 10.0 mi SSE 4.6 mph - N/A   Clear
10:55 PM 32.5 °F 28.1 °F 23.5 °F 69% 30.27 in 10.0 mi SSE 4.6 mph - N/A   Clear
11:15 PM 32.5 °F 28.1 °F 23.4 °F 69% 30.27 in 10.0 mi SSE 4.6 mph - N/A   Clear
11:35 PM 31.8 °F 27.3 °F 23.2 °F 70% 30.26 in 10.0 mi SSE 4.6 mph - N/A   Clear
11:55 PM 31.8 °F 26.2 °F 23.2 °F 70% 30.25 in 10.0 mi SSE 5.8 mph - N/A   Clear